PDT,Max TemperatureF,Mean TemperatureF,Min TemperatureF,Max Dew PointF,MeanDew PointF,Min DewpointF,Max Humidity, Mean Humidity, Min Humidity, Max Sea Level PressureIn, Mean Sea Level PressureIn, Min Sea Level PressureIn, Max VisibilityMiles, Mean VisibilityMiles, Min VisibilityMiles, Max Wind SpeedMPH, Mean Wind SpeedMPH, Max Gust SpeedMPH,PrecipitationIn, CloudCover, Events, WindDirDegrees
2012-10-1,71,56,41,50,42,37,87,58,28,30.29,30.11,29.88,10,9,9,16,4,24,0.00,2,,175
2012-10-2,65,50,35,43,27,19,81,42,17,30.39,30.16,29.94,10,9,9,24,10,32,0.00,4,,6
2012-10-3,58,42,25,31,26,21,93,58,15,30.57,30.49,30.41,10,9,9,12,3,,0.00,1,,353
2012-10-4,59,41,23,28,25,21,93,57,17,30.49,30.42,30.36,10,9,9,6,3,,0.00,0,,23
2012-10-5,59,41,23,30,26,19,86,58,19,30.51,30.44,30.38,10,9,9,7,2,,0.00,0,,17
2012-10-6,62,44,27,36,30,25,93,61,23,30.46,30.37,30.25,10,9,9,9,3,,0.00,0,,12
2012-10-7,63,46,28,39,35,28,93,69,29,30.25,30.14,30.02,10,9,9,12,3,,0.00,0,,19
2012-10-8,69,52,35,43,39,34,93,68,29,30.04,29.99,29.93,10,9,9,9,4,,0.00,2,,19
2012-10-9,66,50,33,41,37,33,100,66,24,30.14,30.06,30.00,10,9,9,10,3,,0.00,0,,10
2012-10-10,68,50,32,43,37,30,93,67,30,30.01,29.95,29.88,10,9,9,9,2,,0.00,0,,11
2012-10-11,65,48,30,43,37,32,93,69,36,30.06,29.92,29.76,10,8,4,6,2,,0.00,1,,10
2012-10-12,68,54,41,50,44,37,88,69,33,29.85,29.77,29.69,10,9,9,12,4,18,0.04,8,Rain,157
2012-10-13,57,52,48,52,50,48,100,89,72,30.11,30.05,29.87,10,9,7,9,4,,0.02,8,Rain,124
2012-10-14,61,54,48,55,51,48,100,89,64,30.06,29.91,29.79,10,9,8,12,4,,0.03,8,Rain,40
2012-10-15,66,54,43,52,48,45,93,73,47,29.83,29.66,29.43,10,9,5,22,5,30,0.08,6,Rain,171
2012-10-16,60,54,48,52,38,23,100,58,23,30.04,29.63,29.36,10,9,9,26,7,33,0.08,5,Rain,200
2012-10-17,56,46,35,37,31,26,81,53,20,30.27,30.21,30.08,10,9,9,14,6,,0.00,4,,173
2012-10-18,50,46,42,43,40,36,87,75,66,30.22,30.05,29.78,10,9,9,13,5,17,0.00,8,Rain,358
2012-10-19,59,51,43,46,41,28,93,72,33,29.78,29.65,29.54,10,9,9,18,7,18,0.04,7,Rain,129
2012-10-20,51,40,28,32,25,18,86,48,21,29.85,29.71,29.57,10,9,9,22,9,23,0.00,6,,188
2012-10-21,40,32,25,36,30,23,100,85,70,29.96,29.93,29.86,10,9,9,8,2,,0.02,7,Rain,13
2012-10-22,45,33,21,32,28,21,100,73,40,29.96,29.80,29.65,10,9,9,21,7,26,0.00,3,Rain,8
2012-10-23,41,37,33,36,34,32,100,90,75,30.03,29.84,29.67,10,8,5,14,7,21,0.12,8,Rain,12
2012-10-24,41,38,34,34,32,30,93,80,63,30.23,30.13,30.04,10,9,9,12,8,,0.00,7,Rain,7
2012-10-25,46,40,33,36,33,30,100,83,53,30.44,30.37,30.23,10,9,9,6,2,,0.00,8,Rain,49
2012-10-26,42,38,34,37,36,32,100,86,76,30.40,30.22,30.06,10,9,5,9,3,,0.00,8,Rain,16
2012-10-27,41,39,37,39,37,36,100,90,79,30.06,29.98,29.84,10,8,3,7,3,,0.20,8,Rain,142
2012-10-28,52,44,35,43,39,36,100,90,67,29.93,29.87,29.83,10,9,5,9,4,,0.20,6,Rain,124
2012-10-29,54,46,39,48,42,37,100,93,82,29.94,29.86,29.79,10,7,1,9,3,,0.31,6,Rain,111
2012-10-30,54,46,38,46,45,39,100,90,67,29.94,29.91,29.89,10,9,7,8,3,,0.04,8,Rain,58
2012-10-31,49,48,46,46,46,45,100,94,87,29.91,29.79,29.73,10,7,2,8,6,,0.12,8,Rain,35